HBPZR LSGG-LFMA

Flight info

Callsign HBPZR
Flight time 1h 15m
Altitude 5000
Route VFR ROUTE
Aircraft P28A/L-G/S

Departure

Time 2026-04-16 06:15
Airport Geneva International Airport (LSGG)

Arrival

Time 2026-04-16 07:31
Airport Aix Les Milles airport (LFMA)
Time Latitude Longitude Altitude Speed Heading
2026-04-16 06:00 46.23374 6.09736 1395 ft 0 kts 46°
2026-04-16 06:08 46.23374 6.09737 1408 ft 1 kts 50°
2026-04-16 06:08 46.23347 6.09760 1407 ft 8 kts 186°
2026-04-16 06:08 46.23328 6.09801 1404 ft 2 kts 59°
2026-04-16 06:09 46.23344 6.09844 1411 ft 6 kts 45°
2026-04-16 06:09 46.23390 6.09912 1406 ft 10 kts 48°
2026-04-16 06:09 46.23367 6.09984 1404 ft 12 kts 136°
2026-04-16 06:09 46.23338 6.10026 1409 ft 0 kts 106°
2026-04-16 06:14 46.23337 6.10081 1396 ft 16 kts 113°
2026-04-16 06:14 46.23349 6.10216 1391 ft 17 kts 46°
2026-04-16 06:14 46.23526 6.10484 1383 ft 66 kts 45°
2026-04-16 06:15 46.23916 6.11029 1539 ft 86 kts 43°
2026-04-16 06:15 46.24382 6.11688 1716 ft 103 kts 44°
2026-04-16 06:15 46.24827 6.12559 1965 ft 110 kts 68°
2026-04-16 06:15 46.25052 6.13622 2229 ft 114 kts 77°
2026-04-16 06:16 46.25128 6.14778 2503 ft 116 kts 98°
2026-04-16 06:16 46.24679 6.15759 2745 ft 125 kts 142°
2026-04-16 06:16 46.23903 6.16367 2972 ft 127 kts 152°
2026-04-16 06:16 46.23077 6.16850 3177 ft 130 kts 159°
2026-04-16 06:17 46.22185 6.17202 3376 ft 131 kts 165°
2026-04-16 06:17 46.21271 6.17369 3555 ft 137 kts 181°
2026-04-16 06:17 46.20348 6.16949 3606 ft 144 kts 223°
2026-04-16 06:17 46.19592 6.16015 3620 ft 146 kts 222°
2026-04-16 06:18 46.18808 6.15016 3540 ft 153 kts 221°
2026-04-16 06:18 46.17985 6.14105 3535 ft 154 kts 216°
2026-04-16 06:18 46.17106 6.13221 3593 ft 156 kts 214°
2026-04-16 06:18 46.16191 6.12336 3616 ft 159 kts 214°
2026-04-16 06:19 46.15272 6.11438 3637 ft 161 kts 214°
2026-04-16 06:19 46.14351 6.10551 3760 ft 154 kts 213°
2026-04-16 06:19 46.13441 6.09852 4009 ft 145 kts 202°
2026-04-16 06:19 46.12493 6.09391 4195 ft 144 kts 195°
2026-04-16 06:20 46.11542 6.08996 4390 ft 143 kts 194°
2026-04-16 06:20 46.10585 6.08643 4587 ft 141 kts 192°
2026-04-16 06:20 46.09619 6.08323 4763 ft 143 kts 191°
2026-04-16 06:20 46.08705 6.08039 4903 ft 135 kts 192°
2026-04-16 06:21 46.07805 6.07791 5192 ft 133 kts 191°
2026-04-16 06:21 46.06847 6.07475 5048 ft 146 kts 192°
2026-04-16 06:21 46.05841 6.07118 5014 ft 154 kts 192°
2026-04-16 06:21 46.04780 6.06737 5002 ft 160 kts 192°
2026-04-16 06:22 46.03693 6.06351 5006 ft 162 kts 192°
2026-04-16 06:22 46.02591 6.05960 5011 ft 164 kts 192°
2026-04-16 06:22 46.01478 6.05566 5013 ft 165 kts 192°
2026-04-16 06:22 46.00372 6.05180 5017 ft 161 kts 192°
2026-04-16 06:23 45.99291 6.04830 5037 ft 157 kts 192°
2026-04-16 06:23 45.98264 6.04496 5157 ft 150 kts 192°
2026-04-16 06:23 45.97262 6.04168 5308 ft 145 kts 192°
2026-04-16 06:23 45.96293 6.03848 5502 ft 141 kts 192°
2026-04-16 06:24 45.95348 6.03539 5700 ft 138 kts 192°
2026-04-16 06:24 45.94418 6.03231 5899 ft 136 kts 192°
2026-04-16 06:24 45.93497 6.02929 6101 ft 135 kts 192°
2026-04-16 06:24 45.92583 6.02630 6301 ft 134 kts 192°
2026-04-16 06:25 45.91679 6.02334 6506 ft 133 kts 192°
2026-04-16 06:25 45.90795 6.02044 6704 ft 131 kts 192°
2026-04-16 06:25 45.89906 6.01756 6893 ft 131 kts 192°
2026-04-16 06:25 45.89021 6.01472 7085 ft 130 kts 192°
2026-04-16 06:26 45.88137 6.01195 7256 ft 131 kts 191°
2026-04-16 06:26 45.87206 6.00907 7271 ft 142 kts 191°
2026-04-16 06:26 45.86219 6.00605 7284 ft 147 kts 191°
2026-04-16 06:26 45.85202 6.00297 7284 ft 151 kts 191°
2026-04-16 06:27 45.84170 5.99987 7278 ft 153 kts 191°
2026-04-16 06:27 45.83125 5.99672 7283 ft 154 kts 191°
2026-04-16 06:27 45.82086 5.99359 7280 ft 155 kts 191°
2026-04-16 06:27 45.81028 5.99075 7278 ft 156 kts 187°
2026-04-16 06:28 45.79957 5.98827 7279 ft 156 kts 189°
2026-04-16 06:28 45.78890 5.98553 7281 ft 156 kts 189°
2026-04-16 06:28 45.77846 5.98289 7393 ft 148 kts 189°
2026-04-16 06:28 45.76850 5.98036 7527 ft 143 kts 189°
2026-04-16 06:29 45.75885 5.97794 7670 ft 139 kts 189°
2026-04-16 06:29 45.74942 5.97567 7810 ft 136 kts 189°
2026-04-16 06:29 45.74010 5.97343 7952 ft 135 kts 189°
2026-04-16 06:29 45.73098 5.97125 8095 ft 134 kts 189°
2026-04-16 06:30 45.72176 5.96910 8236 ft 134 kts 189°
2026-04-16 06:30 45.71229 5.96697 8266 ft 142 kts 188°
2026-04-16 06:30 45.70229 5.96473 8278 ft 148 kts 188°
2026-04-16 06:30 45.69234 5.96252 8418 ft 141 kts 188°
2026-04-16 06:31 45.68277 5.96043 8566 ft 137 kts 188°
2026-04-16 06:31 45.67349 5.95845 8713 ft 133 kts 188°
2026-04-16 06:31 45.66442 5.95654 8858 ft 131 kts 189°
2026-04-16 06:31 45.65552 5.95476 9003 ft 128 kts 188°
2026-04-16 06:32 45.64690 5.95302 9157 ft 126 kts 188°
2026-04-16 06:32 45.63825 5.95132 9270 ft 127 kts 188°
2026-04-16 06:32 45.62918 5.94951 9273 ft 135 kts 188°
2026-04-16 06:32 45.61974 5.94766 9280 ft 138 kts 188°
2026-04-16 06:33 45.61012 5.94574 9282 ft 140 kts 188°
2026-04-16 06:33 45.60043 5.94375 9282 ft 141 kts 188°
2026-04-16 06:33 45.59065 5.94179 9282 ft 142 kts 188°
2026-04-16 06:33 45.58084 5.93981 9284 ft 143 kts 188°
2026-04-16 06:34 45.57109 5.93786 9281 ft 144 kts 188°
2026-04-16 06:34 45.56117 5.93588 9284 ft 144 kts 188°
2026-04-16 06:34 45.55122 5.93391 9284 ft 145 kts 188°
2026-04-16 06:34 45.54120 5.93194 9281 ft 145 kts 188°
2026-04-16 06:35 45.53118 5.92998 9281 ft 146 kts 188°
2026-04-16 06:35 45.52113 5.92802 9279 ft 146 kts 188°
2026-04-16 06:35 45.51110 5.92607 9281 ft 145 kts 188°
2026-04-16 06:35 45.50107 5.92415 9277 ft 146 kts 188°
2026-04-16 06:36 45.49100 5.92223 9277 ft 146 kts 188°
2026-04-16 06:36 45.48135 5.92041 9402 ft 137 kts 187°
2026-04-16 06:36 45.47222 5.91827 9546 ft 130 kts 191°
2026-04-16 06:36 45.46354 5.91605 9687 ft 124 kts 190°
2026-04-16 06:37 45.45527 5.91397 9825 ft 117 kts 190°
2026-04-16 06:37 45.44746 5.91201 9962 ft 111 kts 190°
2026-04-16 06:37 45.44025 5.91028 10094 ft 100 kts 190°
2026-04-16 06:37 45.43355 5.90866 10223 ft 96 kts 190°
2026-04-16 06:38 45.42698 5.90712 10256 ft 97 kts 190°
2026-04-16 06:38 45.42035 5.90555 10254 ft 99 kts 189°
2026-04-16 06:38 45.41350 5.90393 10257 ft 101 kts 190°
2026-04-16 06:38 45.40657 5.90231 10261 ft 101 kts 190°
2026-04-16 06:39 45.39973 5.90068 10263 ft 100 kts 189°
2026-04-16 06:39 45.39242 5.89888 10189 ft 114 kts 190°
2026-04-16 06:39 45.38419 5.89689 10075 ft 126 kts 190°
2026-04-16 06:39 45.37522 5.89475 9950 ft 135 kts 190°
2026-04-16 06:40 45.36568 5.89245 9821 ft 142 kts 190°
2026-04-16 06:40 45.35583 5.89005 9765 ft 143 kts 190°
2026-04-16 06:40 45.34628 5.88773 9763 ft 139 kts 190°
2026-04-16 06:40 45.33684 5.88532 9760 ft 137 kts 192°
2026-04-16 06:41 45.32756 5.88251 9760 ft 136 kts 194°
2026-04-16 06:41 45.31839 5.87941 9756 ft 134 kts 194°
2026-04-16 06:41 45.30933 5.87636 9751 ft 134 kts 194°
2026-04-16 06:41 45.30023 5.87332 9744 ft 134 kts 194°
2026-04-16 06:42 45.29112 5.87032 9740 ft 134 kts 193°
2026-04-16 06:42 45.28214 5.86737 9744 ft 135 kts 193°
2026-04-16 06:42 45.27297 5.86440 9742 ft 135 kts 193°
2026-04-16 06:42 45.26380 5.86140 9743 ft 135 kts 193°
2026-04-16 06:43 45.25469 5.85838 9741 ft 134 kts 193°
2026-04-16 06:43 45.24562 5.85540 9739 ft 134 kts 193°
2026-04-16 06:43 45.23658 5.85242 9740 ft 133 kts 193°
2026-04-16 06:43 45.22756 5.84944 9736 ft 134 kts 193°
2026-04-16 06:44 45.21846 5.84650 9734 ft 135 kts 192°
2026-04-16 06:44 45.20927 5.84392 9736 ft 134 kts 191°
2026-04-16 06:44 45.20022 5.84143 9736 ft 135 kts 189°
2026-04-16 06:44 45.19088 5.84012 9737 ft 135 kts 184°
2026-04-16 06:45 45.18152 5.83908 9734 ft 135 kts 184°
2026-04-16 06:45 45.17219 5.83745 9731 ft 136 kts 189°
2026-04-16 06:45 45.16289 5.83507 9729 ft 136 kts 191°
2026-04-16 06:45 45.15367 5.83252 9731 ft 135 kts 191°
2026-04-16 06:46 45.14440 5.83004 9726 ft 136 kts 191°
2026-04-16 06:46 45.13511 5.82756 9731 ft 136 kts 191°
2026-04-16 06:46 45.12581 5.82507 9718 ft 136 kts 191°
2026-04-16 06:46 45.11663 5.82262 9731 ft 136 kts 191°
2026-04-16 06:47 45.10733 5.82015 9731 ft 136 kts 191°
2026-04-16 06:47 45.09798 5.81766 9733 ft 137 kts 191°
2026-04-16 06:47 45.08862 5.81518 9728 ft 136 kts 191°
2026-04-16 06:47 45.07931 5.81271 9735 ft 136 kts 191°
2026-04-16 06:48 45.07002 5.81029 9731 ft 135 kts 190°
2026-04-16 06:48 45.06082 5.80786 9724 ft 134 kts 191°
2026-04-16 06:48 45.05168 5.80548 9727 ft 134 kts 190°
2026-04-16 06:48 45.04259 5.80313 9732 ft 135 kts 191°
2026-04-16 06:49 45.03334 5.80074 9734 ft 135 kts 190°
2026-04-16 06:49 45.02413 5.79837 9733 ft 135 kts 190°
2026-04-16 06:49 45.01494 5.79603 9731 ft 134 kts 190°
2026-04-16 06:49 45.00581 5.79371 9720 ft 133 kts 190°
2026-04-16 06:50 44.99671 5.79142 9725 ft 132 kts 190°
2026-04-16 06:50 44.98764 5.78912 9722 ft 132 kts 190°
2026-04-16 06:50 44.97861 5.78688 9721 ft 131 kts 190°
2026-04-16 06:50 44.96961 5.78462 9721 ft 131 kts 190°
2026-04-16 06:51 44.96075 5.78242 9716 ft 131 kts 190°
2026-04-16 06:51 44.95176 5.78020 9717 ft 131 kts 190°
2026-04-16 06:51 44.94276 5.77800 9717 ft 131 kts 190°
2026-04-16 06:51 44.93377 5.77578 9716 ft 131 kts 190°
2026-04-16 06:52 44.92478 5.77361 9706 ft 131 kts 190°
2026-04-16 06:52 44.91577 5.77144 9707 ft 130 kts 189°
2026-04-16 06:52 44.90680 5.76929 9707 ft 131 kts 190°
2026-04-16 06:52 44.89784 5.76717 9706 ft 130 kts 189°
2026-04-16 06:53 44.88907 5.76507 9711 ft 129 kts 189°
2026-04-16 06:53 44.88016 5.76296 9710 ft 130 kts 189°
2026-04-16 06:53 44.87131 5.76092 9704 ft 128 kts 189°
2026-04-16 06:53 44.86243 5.75884 9711 ft 130 kts 189°
2026-04-16 06:54 44.85350 5.75676 9710 ft 131 kts 189°
2026-04-16 06:54 44.84451 5.75472 9699 ft 131 kts 190°
2026-04-16 06:54 44.83549 5.75280 9700 ft 131 kts 189°
2026-04-16 06:54 44.82650 5.75085 9701 ft 130 kts 189°
2026-04-16 06:55 44.81766 5.74894 9700 ft 130 kts 189°
2026-04-16 06:55 44.80864 5.74702 9699 ft 132 kts 189°
2026-04-16 06:55 44.79953 5.74512 9698 ft 132 kts 189°
2026-04-16 06:55 44.79042 5.74322 9701 ft 133 kts 189°
2026-04-16 06:56 44.78127 5.74129 9702 ft 133 kts 189°
2026-04-16 06:56 44.77208 5.73941 9704 ft 134 kts 189°
2026-04-16 06:56 44.76284 5.73750 9704 ft 133 kts 189°
2026-04-16 06:56 44.75374 5.73558 9708 ft 132 kts 189°
2026-04-16 06:57 44.74461 5.73366 9709 ft 133 kts 189°
2026-04-16 06:57 44.73538 5.73174 9710 ft 134 kts 188°
2026-04-16 06:57 44.72633 5.72985 9710 ft 133 kts 189°
2026-04-16 06:57 44.71718 5.72796 9703 ft 133 kts 189°
2026-04-16 06:58 44.70797 5.72607 9705 ft 133 kts 189°
2026-04-16 06:58 44.69886 5.72428 9694 ft 132 kts 189°
2026-04-16 06:58 44.68973 5.72251 9697 ft 134 kts 189°
2026-04-16 06:58 44.68058 5.72075 9693 ft 131 kts 188°
2026-04-16 06:59 44.67154 5.71904 9694 ft 131 kts 188°
2026-04-16 06:59 44.66249 5.71729 9694 ft 131 kts 188°
2026-04-16 06:59 44.65359 5.71558 9696 ft 131 kts 188°
2026-04-16 06:59 44.64447 5.71384 9699 ft 133 kts 188°
2026-04-16 07:00 44.63534 5.71210 9698 ft 131 kts 188°
2026-04-16 07:00 44.62630 5.71039 9688 ft 132 kts 188°
2026-04-16 07:00 44.61729 5.70857 9689 ft 130 kts 188°
2026-04-16 07:01 44.59916 5.70448 9630 ft 137 kts 190°
2026-04-16 07:01 44.58956 5.70210 9513 ft 143 kts 190°
2026-04-16 07:01 44.57969 5.69964 9397 ft 149 kts 190°
2026-04-16 07:01 44.56928 5.69707 9276 ft 154 kts 190°
2026-04-16 07:02 44.55869 5.69442 9198 ft 153 kts 190°
2026-04-16 07:02 44.54840 5.69186 9187 ft 148 kts 190°
2026-04-16 07:02 44.53838 5.68944 9184 ft 144 kts 190°
2026-04-16 07:02 44.52854 5.68703 9181 ft 144 kts 190°
2026-04-16 07:03 44.51866 5.68460 9179 ft 144 kts 190°
2026-04-16 07:03 44.50873 5.68218 9181 ft 146 kts 190°
2026-04-16 07:03 44.49876 5.67979 9181 ft 145 kts 189°
2026-04-16 07:03 44.48896 5.67743 9180 ft 144 kts 190°
2026-04-16 07:04 44.47911 5.67509 9178 ft 144 kts 190°
2026-04-16 07:04 44.46929 5.67281 9169 ft 142 kts 189°
2026-04-16 07:04 44.45952 5.67058 9174 ft 142 kts 189°
2026-04-16 07:04 44.44973 5.66831 9177 ft 143 kts 189°
2026-04-16 07:05 44.43984 5.66605 9119 ft 148 kts 189°
2026-04-16 07:05 44.42934 5.66361 8973 ft 156 kts 189°
2026-04-16 07:05 44.41856 5.66109 8832 ft 159 kts 189°
2026-04-16 07:05 44.40753 5.65852 8685 ft 161 kts 189°
2026-04-16 07:06 44.39656 5.65595 8531 ft 164 kts 189°
2026-04-16 07:06 44.38528 5.65330 8368 ft 164 kts 189°
2026-04-16 07:06 44.37394 5.65062 8201 ft 168 kts 189°
2026-04-16 07:06 44.36234 5.64792 8033 ft 171 kts 189°
2026-04-16 07:07 44.35069 5.64517 7858 ft 169 kts 189°
2026-04-16 07:07 44.33912 5.64242 7684 ft 168 kts 189°
2026-04-16 07:07 44.32762 5.63971 7517 ft 168 kts 189°
2026-04-16 07:07 44.31600 5.63687 7350 ft 171 kts 189°
2026-04-16 07:08 44.30445 5.63403 7184 ft 170 kts 189°
2026-04-16 07:08 44.29304 5.63116 7175 ft 163 kts 189°
2026-04-16 07:08 44.28200 5.62842 7168 ft 159 kts 190°
2026-04-16 07:08 44.27123 5.62598 7164 ft 155 kts 189°
2026-04-16 07:09 44.26064 5.62368 7160 ft 153 kts 189°
2026-04-16 07:09 44.25017 5.62142 7153 ft 151 kts 189°
2026-04-16 07:09 44.23950 5.61900 6984 ft 159 kts 191°
2026-04-16 07:09 44.22860 5.61547 6820 ft 162 kts 194°
2026-04-16 07:10 44.21773 5.61175 6659 ft 164 kts 194°
2026-04-16 07:10 44.20664 5.60795 6492 ft 164 kts 194°
2026-04-16 07:10 44.19552 5.60413 6316 ft 165 kts 193°
2026-04-16 07:10 44.18434 5.60024 6166 ft 165 kts 193°
2026-04-16 07:11 44.17347 5.59642 6167 ft 159 kts 193°
2026-04-16 07:11 44.16283 5.59267 6123 ft 158 kts 193°
2026-04-16 07:11 44.15203 5.58889 5998 ft 161 kts 193°
2026-04-16 07:11 44.14111 5.58506 5871 ft 162 kts 193°
2026-04-16 07:12 44.13030 5.58119 5753 ft 164 kts 193°
2026-04-16 07:12 44.11916 5.57716 5622 ft 166 kts 194°
2026-04-16 07:12 44.10798 5.57309 5506 ft 165 kts 194°
2026-04-16 07:12 44.09721 5.56922 5375 ft 156 kts 193°
2026-04-16 07:13 44.08685 5.56534 5230 ft 152 kts 193°
2026-04-16 07:13 44.07678 5.56162 5150 ft 146 kts 193°
2026-04-16 07:13 44.06722 5.55805 5142 ft 140 kts 193°
2026-04-16 07:13 44.05774 5.55449 5031 ft 141 kts 193°
2026-04-16 07:14 44.04824 5.55084 4882 ft 144 kts 193°
2026-04-16 07:14 44.03861 5.54715 4710 ft 147 kts 193°
2026-04-16 07:14 44.02869 5.54342 4533 ft 149 kts 193°
2026-04-16 07:14 44.01863 5.53995 4429 ft 146 kts 190°
2026-04-16 07:15 44.00888 5.53743 4429 ft 141 kts 188°
2026-04-16 07:15 43.99936 5.53494 4414 ft 138 kts 188°
2026-04-16 07:15 43.98998 5.53253 4417 ft 137 kts 189°
2026-04-16 07:15 43.98059 5.53020 4415 ft 137 kts 189°
2026-04-16 07:16 43.97110 5.52776 4324 ft 141 kts 189°
2026-04-16 07:16 43.96141 5.52533 4229 ft 142 kts 188°
2026-04-16 07:16 43.95173 5.52288 4128 ft 144 kts 189°
2026-04-16 07:16 43.94187 5.52023 4035 ft 144 kts 191°
2026-04-16 07:17 43.93218 5.51738 4022 ft 141 kts 191°
2026-04-16 07:17 43.92265 5.51731 4012 ft 135 kts 168°
2026-04-16 07:17 43.91340 5.51982 4010 ft 135 kts 165°
2026-04-16 07:17 43.90443 5.52316 4006 ft 133 kts 161°
2026-04-16 07:18 43.89565 5.52701 4015 ft 132 kts 160°
2026-04-16 07:18 43.88690 5.53074 4016 ft 132 kts 160°
2026-04-16 07:18 43.87819 5.53452 4020 ft 133 kts 160°
2026-04-16 07:18 43.86939 5.53838 4017 ft 131 kts 160°
2026-04-16 07:19 43.86054 5.54240 4024 ft 139 kts 160°
2026-04-16 07:19 43.85106 5.54668 4028 ft 147 kts 160°
2026-04-16 07:19 43.84117 5.55077 4021 ft 150 kts 169°
2026-04-16 07:19 43.83075 5.54953 4016 ft 153 kts 195°
2026-04-16 07:20 43.82075 5.54436 4024 ft 153 kts 200°
2026-04-16 07:20 43.81099 5.53821 4028 ft 154 kts 205°
2026-04-16 07:20 43.80137 5.53155 4031 ft 154 kts 205°
2026-04-16 07:20 43.79187 5.52498 4033 ft 155 kts 205°
2026-04-16 07:21 43.78203 5.51822 3932 ft 161 kts 205°
2026-04-16 07:21 43.77186 5.51132 3809 ft 163 kts 205°
2026-04-16 07:21 43.76156 5.50452 3688 ft 164 kts 203°
2026-04-16 07:21 43.75108 5.49798 3572 ft 167 kts 203°
2026-04-16 07:22 43.74051 5.49146 3476 ft 164 kts 202°
2026-04-16 07:22 43.73037 5.48515 3334 ft 158 kts 202°
2026-04-16 07:22 43.72045 5.47902 3165 ft 154 kts 202°
2026-04-16 07:22 43.71078 5.47308 3027 ft 150 kts 202°
2026-04-16 07:23 43.70163 5.46744 3028 ft 143 kts 202°
2026-04-16 07:23 43.69244 5.46162 3026 ft 150 kts 203°
2026-04-16 07:23 43.68277 5.45544 3023 ft 154 kts 202°
2026-04-16 07:23 43.67304 5.44923 3032 ft 154 kts 202°
2026-04-16 07:24 43.66302 5.44283 2932 ft 161 kts 202°
2026-04-16 07:24 43.65304 5.43650 2805 ft 155 kts 202°
2026-04-16 07:24 43.64331 5.43038 2680 ft 153 kts 202°
2026-04-16 07:24 43.63368 5.42436 2548 ft 151 kts 202°
2026-04-16 07:25 43.62409 5.41836 2418 ft 153 kts 203°
2026-04-16 07:25 43.61454 5.41240 2266 ft 153 kts 201°
2026-04-16 07:25 43.60480 5.40642 2116 ft 153 kts 203°
2026-04-16 07:25 43.59507 5.40066 2035 ft 150 kts 202°
2026-04-16 07:26 43.58532 5.39507 2036 ft 154 kts 200°
2026-04-16 07:26 43.57505 5.39083 1957 ft 152 kts 193°
2026-04-16 07:26 43.56496 5.38717 1815 ft 144 kts 193°
2026-04-16 07:26 43.55546 5.38365 1628 ft 139 kts 194°
2026-04-16 07:27 43.54646 5.37971 1547 ft 135 kts 196°
2026-04-16 07:27 43.53775 5.37588 1503 ft 130 kts 196°
2026-04-16 07:27 43.52872 5.37338 1433 ft 128 kts 180°
2026-04-16 07:27 43.52098 5.37654 1385 ft 110 kts 155°
2026-04-16 07:28 43.51444 5.38155 1322 ft 103 kts 140°
2026-04-16 07:28 43.50885 5.38702 1338 ft 95 kts 143°
2026-04-16 07:28 43.50346 5.39217 1381 ft 94 kts 146°
2026-04-16 07:28 43.49764 5.39652 1408 ft 95 kts 151°
2026-04-16 07:29 43.49146 5.39997 1416 ft 99 kts 160°
2026-04-16 07:29 43.48459 5.40115 1333 ft 101 kts 183°
2026-04-16 07:29 43.47882 5.39644 1238 ft 99 kts 237°
2026-04-16 07:29 43.47941 5.38824 1134 ft 87 kts 339°
2026-04-16 07:30 43.48505 5.38484 985 ft 80 kts 342°
2026-04-16 07:30 43.49009 5.38153 765 ft 78 kts 328°
2026-04-16 07:30 43.49437 5.37754 622 ft 71 kts 329°
2026-04-16 07:30 43.49848 5.37377 474 ft 72 kts 328°
2026-04-16 07:31 43.50254 5.37000 375 ft 66 kts 324°
2026-04-16 07:31 43.50588 5.36693 351 ft 49 kts 325°
2026-04-16 07:31 43.50670 5.36587 354 ft 6 kts 187°
2026-04-16 07:31 43.50626 5.36526 351 ft 12 kts 236°
2026-04-16 07:32 43.50591 5.36443 355 ft 10 kts 275°
2026-04-16 07:32 43.50560 5.36395 350 ft 8 kts 151°
2026-04-16 07:32 43.50523 5.36436 356 ft 7 kts 123°
2026-04-16 07:32 43.50505 5.36465 351 ft 0 kts 142°